GFSFLT1_prec_cloud_018.txt.gz
Cloud_Cover
71 89 100 100 100 100 100 100 98 100 100 85 49 68 90 67 35 8 5 5 5 4 1 0 0 0 0 0 0 0 0 0
100 96 99 100 100 80 47 60 88 46 5 5 35 5 5 5 5 4 2 0 0 0 0 0 0 0 0 5 0 0 0 0
5 5 5 5 5 6 64 69 15 17 6 77 5 5 2 0 0 0 0 0 0 0 0 0 3 5 5 1 0 0 0 0
1 2 5 14 69 11 22 6 6 5 75 4 10 6 0 0 0 0 0 0 0 3 4 0 5 2 0 0 0 0 1 1
5 4 2 100 70 55 5 5 59 63 7 0 0 0 0 0 26 0 4 5 35 49 4 1 0 0 4 0 0 0 0 2
5 41 85 100 71 92 82 39 3 3 0 0 0 0 0 0 0 5 5 100 95 15 4 2 0 0 0 0 1 5 8 5
18 9 30 20 11 4 0 0 3 0 1 0 0 0 1 4 7 14 19 89 79 96 15 3 5 5 5 0 5 5 5 5
0 0 0 0 0 0 0 0 0 3 5 0 4 11 5 5 12 79 70 99 100 42 5 5 5 5 5 5 7 24 15 5
0 0 0 0 0 0 0 0 5 5 5 13 42 8 5 5 39 71 45 57 73 11 5 5 5 40 19 32 73 29 8 5
0 0 0 0 0 0 0 0 0 19 100 87 10 11 10 70 85 82 26 100 78 7 5 5 24 5 6 5 9 45 14 21
0 0 0 0 0 4 2 1 5 94 100 5 50 80 97 100 100 80 100 98 8 5 5 54 61 84 58 93 100 99 81 74
0 0 0 0 3 4 3 5 20 100 100 5 28 92 81 100 98 98 94 6 5 13 45 6 99 100 100 99 15 5 5 15
0 0 3 5 5 5 5 5 100 88 5 23 78 100 100 97 99 77 5 5 29 39 10 5 100 100 99 92 8 6 51 73
5 5 5 2 5 5 49 95 15 5 5 24 85 99 100 99 92 29 16 11 63 10 5 13 80 5 10 78 70 100 54 39
2 4 5 5 18 100 11 5 5 5 9 100 100 100 41 83 37 51 57 53 62 5 27 31 78 84 15 28 97 100 52 8
5 23 46 100 98 7 5 5 5 5 93 100 100 94 91 34 60 76 100 98 80 32 88 78 100 87 100 100 100 82 90 90
5 5 96 49 5 5 5 5 5 5 98 100 100 100 95 97 100 100 100 100 95 71 100 97 100 95 100 100 98 84 37 24
5 5 14 21 5 5 5 5 5 9 90 100 100 86 100 100 88 100 100 100 96 100 100 100 100 100 100 100 100 100 92 3
6 89 63 6 5 5 5 5 5 34 100 100 100 99 100 100 100 100 100 100 100 100 100 100 100 100 100 100 100 32 0 4

GFSFLT1_prec_cloud_021.txt.gz
Cloud_Cover
100 100 100 100 100 71 47 10 5 99 100 92 100 68 41 100 96 66 88 85 62 38 29 10 5 1 0 0 0 0 0 0
9 17 41 97 27 5 77 100 100 100 68 40 88 59 5 5 23 5 6 6 5 5 0 0 0 2 0 0 0 0 0 0
58 5 5 5 59 5 14 53 100 41 5 74 60 5 5 5 22 5 4 0 0 0 5 5 5 5 1 0 0 0 0 0
5 5 5 5 20 3 38 46 86 25 5 5 10 5 25 2 0 0 0 0 2 5 5 43 5 63 4 0 0 0 0 0
5 2 0 4 8 22 5 5 5 35 24 23 2 0 0 0 0 0 0 1 5 5 5 21 80 36 4 0 0 0 0 0
3 5 1 0 4 18 5 5 2 1 0 5 0 0 0 0 0 0 0 5 16 5 5 5 5 5 0 0 0 0 3 5
5 5 5 3 100 100 60 43 38 1 4 4 5 5 2 3 1 5 8 80 10 10 5 14 60 5 5 2 1 5 5 5
5 0 27 5 29 100 100 66 0 0 3 4 5 5 5 17 54 55 67 85 16 5 5 31 5 5 5 5 5 5 5 5
54 0 0 0 0 25 85 8 0 3 5 12 73 80 73 100 100 100 75 32 5 5 42 39 5 0 5 5 5 5 5 5
44 0 0 0 0 0 0 0 0 2 2 90 100 100 100 100 100 91 58 64 65 5 5 5 5 5 2 5 5 5 5 5
0 0 0 0 0 0 0 0 0 4 5 95 90 100 99 100 98 91 100 77 100 5 56 5 5 25 36 9 5 5 8 66
0 0 0 0 0 0 0 0 2 3 80 33 17 82 98 84 89 81 73 100 84 73 50 14 92 100 84 66 5 17 58 74
0 0 0 0 0 0 0 0 92 100 70 5 94 8 80 100 100 98 100 94 91 60 31 73 40 100 100 100 81 56 79 100
0 0 0 0 1 3 5 10 72 6 5 4 6 96 100 100 100 100 91 74 93 85 92 89 51 90 100 95 100 100 100 100
2 5 5 5 5 16 9 5 6 5 0 2 50 98 94 100 79 94 81 35 97 84 95 100 100 100 100 100 100 100 100 100
0 4 72 22 36 34 61 37 50 5 5 5 57 71 80 84 89 98 58 82 73 100 100 96 98 100 100 100 100 100 100 100
5 5 5 5 3 4 60 5 5 5 5 47 100 58 70 97 96 93 100 90 100 100 100 100 100 100 100 100 100 100 100 94
17 93 7 5 84 44 5 5 5 5 57 100 95 16 89 99 99 100 100 100 100 100 100 100 100 100 100 100 100 96 100 100
21 12 100 97 9 5 5 5 7 62 100 100 100 100 93 100 100 100 100 100 100 100 100 100 100 100 100 97 100 100 94 44

GFSFLT1_prec_cloud_027.txt.gz
Cloud_Cover
100 100 100 100 100 100 100 100 100 100 100 100 100 100 100 100 100 100 100 100 100 82 59 9 8 16 5 5 5 6 1 2
100 100 100 100 100 100 100 100 100 100 100 100 100 100 100 100 100 100 100 79 12 20 5 5 5 5 3 0 0 0 0 5
100 100 100 99 94 100 100 100 100 100 100 100 98 100 94 90 90 38 43 5 5 5 5 4 3 3 5 0 0 0 4 5
99 100 100 100 100 100 100 100 100 98 66 6 5 5 5 18 37 24 5 3 5 2 0 2 1 0 1 5 3 0 0 0
3 4 94 100 89 87 12 5 20 86 56 100 58 100 5 77 90 79 5 5 5 5 6 25 5 5 27 50 7 5 5 5
100 62 5 8 83 65 74 24 87 60 90 10 94 54 41 67 97 99 5 40 5 6 8 69 100 66 96 66 5 85 5 5
18 72 72 9 41 12 90 85 100 100 100 85 94 8 5 7 95 6 58 20 22 100 11 34 74 86 97 5 22 36 61 5
6 70 23 26 24 83 62 100 100 81 81 98 14 4 6 85 73 83 100 45 85 16 65 84 100 46 37 99 79 79 87 12
5 5 15 18 18 100 100 100 100 90 65 82 28 32 6 100 92 94 35 79 100 100 100 100 100 6 98 20 94 100 16 84
5 6 5 44 63 63 72 26 3 0 0 14 42 4 5 62 100 100 100 100 100 100 100 100 100 92 93 6 91 95 89 52
13 46 14 5 5 5 1 1 0 0 0 0 2 25 100 100 94 99 86 100 100 100 90 100 100 73 89 93 80 76 5 47
5 3 0 0 0 0 0 0 0 0 1 5 5 5 23 19 55 80 100 100 100 89 100 100 100 100 86 99 100 97 96 24
0 0 0 0 3 5 5 0 0 0 5 5 5 57 43 93 100 100 100 100 100 91 27 64 73 90 100 100 31 5 5 5
0 0 0 0 4 1 0 3 1 4 40 91 26 49 69 91 100 44 5 5 8 38 29 99 99 94 72 5 42 38 26 9
0 4 5 5 30 97 70 15 74 61 100 49 46 15 72 100 100 100 95 95 49 68 12 45 100 66 5 5 5 5 5 21
51 71 99 97 53 22 29 97 97 34 52 97 87 84 100 100 100 100 100 94 82 98 100 100 100 55 30 46 5 8 89 98
2 0 0 2 5 24 75 19 93 100 97 8 38 100 100 100 100 100 100 100 100 100 100 100 100 92 99 93 42 95 99 100
0 1 5 5 5 5 9 18 47 14 5 5 63 100 100 100 100 100 100 100 99 100 100 95 84 100 100 97 93 91 97 68
5 5 5 14 34 7 3 0 5 5 5 5 99 100 100 100 100 100 100 100 100 100 100 100 100 100 84 91 52 25 5 52

GFSFLT1_prec_cloud_030.txt.gz
Cloud_Cover
100 83 100 100 100 100 100 100 100 100 100 100 100 100 100 100 100 100 99 100 100 100 100 100 100 100 100 83 49 48 4 0
100 100 100 100 100 100 100 100 100 100 100 100 100 100 86 36 64 100 100 100 100 100 100 100 100 77 46 30 5 0 0 0
100 100 100 88 91 94 64 10 61 43 18 32 43 59 100 100 100 100 99 100 98 19 8 5 5 42 4 2 1 3 5 5
100 100 100 100 100 100 100 86 84 100 100 100 100 100 91 96 71 53 7 11 12 12 12 5 5 5 5 5 60 94 48 7
100 100 100 100 100 100 100 100 100 100 100 100 98 100 100 99 100 71 13 6 49 33 5 5 32 31 10 57 100 43 68 74
100 100 100 100 100 100 100 100 100 100 100 100 100 100 100 100 98 15 18 59 5 46 85 66 88 89 97 100 93 97 6 76
5 8 83 16 90 100 100 100 100 83 100 100 100 78 67 91 84 30 35 89 6 87 7 15 72 99 100 96 67 67 21 28
5 5 5 24 16 32 45 97 100 100 88 100 100 70 98 100 79 58 5 48 84 71 87 99 97 81 100 88 54 26 5 5
5 5 34 15 5 10 24 81 100 100 100 100 100 71 100 98 100 6 60 99 70 83 100 100 98 100 71 5 32 8 64 46
5 5 5 5 5 9 38 82 100 100 100 84 76 100 42 24 51 4 10 94 100 15 85 99 100 100 100 84 68 99 93 5
5 1 0 2 8 90 100 100 61 6 6 5 3 4 0 20 28 98 99 58 64 98 96 100 100 100 99 72 98 61 5 4
5 4 5 5 5 7 6 1 0 0 0 0 0 2 5 35 71 63 63 100 100 100 100 100 100 97 81 84 93 25 5 32
6 51 84 60 5 0 0 1 1 2 2 5 5 57 6 5 29 82 94 100 100 100 100 100 100 100 94 100 82 75 92 82
5 5 5 0 0 0 15 57 98 5 5 8 7 69 5 5 44 100 100 100 100 100 100 100 100 100 97 100 99 100 100 90
0 0 0 0 0 4 27 23 4 3 5 11 41 5 46 22 87 100 100 100 100 100 100 100 100 100 100 96 89 100 100 65
0 0 0 0 2 5 6 15 5 6 5 20 5 16 59 6 55 100 100 100 100 100 100 100 100 100 100 99 80 98 34 17
0 0 0 0 5 5 5 3 5 70 100 82 65 23 9 56 83 99 100 100 92 77 100 100 100 100 100 100 86 43 64 5
5 1 5 5 5 5 5 28 79 95 69 84 26 52 92 100 100 96 100 100 100 100 99 100 100 100 100 100 88 10 5 5
5 5 5 5 5 5 15 48 54 80 91 32 33 60 100 100 100 100 100 100 100 100 100 100 82 100 100 92 53 54 25 5

GFSFLT1_prec_cloud_033.txt.gz
Cloud_Cover
100 100 100 100 100 100 100 100 100 100 100 100 100 100 100 100 100 100 99 100 100 100 100 100 100 11 89 85 93 73 26 24
100 100 100 100 100 100 100 100 100 100 100 100 100 100 100 100 100 100 100 100 100 100 100 13 100 100 93 30 57 55 5 2
88 100 97 100 100 100 100 100 100 100 98 100 100 100 100 100 100 100 100 100 100 100 44 85 83 91 71 5 5 5 5 5
100 100 95 100 100 89 97 97 100 100 100 100 100 100 100 100 100 100 67 48 27 26 12 38 37 6 7 6 90 96 77 12
98 100 100 95 91 80 9 31 96 33 19 72 100 93 74 76 98 100 99 100 47 86 75 5 5 6 7 71 62 82 60 79
100 100 100 100 100 100 100 100 100 88 100 100 96 71 44 26 97 91 100 63 57 77 75 5 36 84 59 69 88 95 100 100
100 100 100 100 100 91 100 95 92 97 100 92 100 100 100 92 81 100 100 97 85 91 31 70 96 80 41 98 98 100 6 12
24 67 99 100 100 95 100 100 100 100 100 100 100 100 100 100 100 100 100 100 66 72 58 12 37 89 48 48 63 22 5 5
4 3 5 82 100 80 98 100 94 100 100 100 100 100 100 100 100 100 100 99 33 29 56 97 89 97 100 48 99 5 5 5
5 5 5 5 5 5 31 25 62 100 100 100 100 100 100 100 85 37 97 76 91 99 95 99 66 33 96 99 25 15 5 9
44 23 14 5 5 21 5 6 5 30 100 100 100 100 100 82 100 99 30 100 93 82 71 90 96 86 25 89 88 17 81 96
96 19 5 2 0 0 5 5 36 97 99 56 44 35 41 86 98 87 99 90 74 73 98 88 72 100 98 70 74 99 100 82
5 5 4 1 5 14 20 50 51 20 97 100 100 100 100 100 100 90 100 77 62 62 100 100 100 80 99 92 100 100 97 100
5 9 5 5 16 84 30 18 4 25 100 100 100 78 92 97 41 95 98 14 78 16 99 63 15 72 96 94 100 100 100 100
2 5 5 25 71 8 1 2 4 25 74 68 33 37 51 80 81 35 70 64 66 91 94 37 98 100 98 100 100 100 87 94
5 5 5 2 1 3 3 7 5 8 5 4 1 0 48 8 5 32 100 100 100 100 48 38 100 100 100 100 100 98 99 100
0 0 0 0 4 5 3 0 0 3 0 1 5 8 59 100 100 100 100 100 100 100 100 100 100 100 100 100 100 100 100 100
3 5 0 0 0 0 0 0 0 2 5 5 5 7 64 100 100 100 100 100 100 100 100 100 100 100 100 100 100 100 100 100
3 0 0 2 0 2 3 3 5 5 8 6 29 99 100 97 100 100 100 92 96 100 100 100 100 100 100 100 100 100 83 100

GFSFLT1_prec_cloud_036.txt.gz
Cloud_Cover
100 100 100 100 100 100 100 100 100 100 100 100 100 100 100 100 100 100 100 100 100 100 100 100 97 100 92 100 96 100 77 5
100 100 100 100 100 100 100 100 100 100 100 100 100 100 100 100 100 100 100 100 100 100 100 100 100 100 100 100 76 53 5 5
100 100 100 100 100 100 100 100 100 100 100 100 100 100 100 100 99 100 100 100 100 100 93 100 79 100 97 57 5 5 5 5
100 22 100 36 100 67 100 100 100 100 100 100 100 100 100 100 100 100 100 100 100 100 98 92 100 28 24 5 5 5 5 8
22 21 82 76 93 99 97 83 30 77 46 87 100 100 100 100 100 100 100 100 100 100 100 96 63 5 5 34 7 40 39 63
78 44 17 24 41 73 13 85 99 100 100 100 80 100 100 100 100 100 98 95 92 91 56 93 87 66 84 40 100 100 77 67
100 100 100 99 89 74 35 11 76 81 100 100 100 100 100 100 100 100 100 100 99 100 100 100 100 69 46 78 74 75 92 60
100 100 100 100 100 98 96 83 92 100 99 100 100 100 100 100 100 100 100 100 100 100 100 100 53 82 73 99 95 76 71 79
14 54 100 92 56 74 90 75 80 100 100 100 100 100 100 100 100 100 100 100 100 100 100 98 65 76 100 66 53 9 45 10
22 5 6 6 12 5 84 91 99 100 100 100 100 100 100 100 100 100 100 100 100 100 100 100 99 100 100 86 44 83 100 5
85 5 15 47 44 18 8 18 36 80 100 100 100 100 100 100 100 100 100 100 100 100 100 100 84 100 71 100 86 94 36 5
100 100 8 5 5 5 5 5 8 32 37 98 100 100 100 100 100 100 100 100 100 100 100 100 92 90 95 71 100 80 94 98
89 12 20 6 5 5 5 5 5 5 37 60 98 100 100 100 100 100 100 100 100 100 100 96 99 100 100 99 100 90 100 100
99 99 100 97 27 39 15 10 11 38 40 49 91 100 100 100 100 100 100 100 100 100 100 98 100 100 100 100 65 100 100 100
16 92 99 100 98 41 27 43 23 19 13 58 91 94 100 100 100 100 100 100 100 100 100 99 100 100 100 100 100 100 100 100
9 35 82 63 68 78 8 11 3 4 6 63 37 57 74 87 63 60 51 49 80 96 100 100 94 100 100 100 100 100 100 100
5 5 2 5 5 5 3 1 4 6 8 5 5 5 5 5 21 92 100 94 100 97 100 100 100 100 100 100 100 100 100 100
5 5 5 5 5 5 5 0 0 5 5 5 5 5 5 10 69 95 75 100 100 100 100 100 100 99 95 100 100 100 100 99
2 5 19 5 5 19 5 0 0 4 11 13 5 5 5 5 34 68 100 100 100 100 99 97 100 100 100 100 100 89 71 95

GFSFLT1_prec_cloud_039.txt.gz
Cloud_Cover
100 100 100 100 100 100 100 100 100 100 100 100 100 100 100 100 100 100 100 100 100 100 100 100 100 100 100 100 15 69 100 96
100 100 100 100 100 100 100 100 100 100 100 100 100 100 100 100 100 100 100 91 97 100 100 100 100 89 100 100 86 98 19 32
100 100 100 100 100 100 100 100 100 100 100 100 100 100 100 100 100 100 100 100 100 100 22 81 62 35 99 100 100 71 67 34
100 100 100 100 100 100 100 100 100 100 100 100 100 100 100 100 100 100 100 100 100 100 100 82 70 97 100 99 44 5 5 3
37 100 100 73 100 98 100 100 100 100 100 100 100 100 100 100 99 94 100 100 100 100 100 100 99 100 91 32 12 5 5 22
5 14 25 62 77 98 90 58 96 96 100 100 100 98 100 100 100 96 100 100 100 100 100 100 100 72 100 100 51 6 12 69
100 49 5 6 30 67 54 41 86 78 100 96 100 97 98 100 100 100 100 99 100 100 100 96 82 100 100 100 59 41 65 98
100 100 100 100 68 74 77 55 9 5 17 89 88 100 100 100 100 100 100 100 100 100 100 100 100 100 100 100 100 89 100 92
5 5 25 94 100 100 100 94 78 82 88 99 100 100 100 100 100 100 100 100 100 100 100 100 100 100 100 100 100 100 99 100
5 5 5 18 5 10 5 38 50 86 100 100 100 100 100 100 100 100 100 100 100 100 100 100 100 100 100 100 99 100 100 99
6 33 16 5 5 6 59 97 100 69 80 100 100 100 100 100 100 100 100 100 100 100 100 100 100 100 100 100 94 96 72 100
69 100 39 14 59 31 7 57 100 100 18 84 99 100 100 100 100 100 100 100 100 100 100 100 100 100 100 100 99 100 100 100
5 22 74 89 5 8 71 23 40 90 100 36 5 50 100 100 100 100 100 100 100 100 100 100 100 100 100 89 100 100 100 100
5 5 10 8 26 34 6 14 19 51 100 95 89 100 100 100 100 100 100 100 100 100 100 100 100 100 100 100 100 100 100 100
6 14 12 5 5 74 98 100 100 55 100 100 100 100 100 100 100 100 100 100 100 100 100 100 100 100 100 100 100 100 100 74
2 0 0 4 7 98 100 99 86 39 50 85 100 100 87 96 100 100 100 100 100 100 100 100 100 100 100 100 100 100 65 85
13 5 5 4 1 14 61 77 90 88 64 74 67 72 98 94 99 99 71 88 95 100 100 100 100 100 100 73 99 100 100 94
5 5 14 4 4 5 5 5 2 1 1 1 1 1 4 6 9 18 7 65 99 77 97 100 100 69 100 98 96 79 89 100
1 1 0 5 54 90 33 5 5 5 5 5 5 5 5 5 5 5 49 63 74 53 66 67 98 87 100 100 100 100 99 43

GFSFLT1_prec_cloud_045.txt.gz
Cloud_Cover
100 100 100 100 100 87 76 100 100 100 100 100 100 100 100 100 100 100 100 100 100 100 100 100 100 100 100 100 100 100 100 100
100 100 100 86 100 90 97 92 100 100 100 100 100 28 100 100 100 100 100 100 100 100 100 100 100 100 100 100 100 100 100 100
100 100 92 100 100 23 71 100 100 100 100 98 94 100 98 87 100 100 100 100 100 100 100 100 100 100 100 100 100 100 100 100
100 100 64 88 91 100 100 100 69 6 42 84 65 86 90 100 100 100 100 100 100 100 100 100 100 100 100 100 100 100 100 100
100 100 100 100 100 100 100 100 100 100 11 84 100 100 100 100 100 100 100 100 100 100 100 100 100 100 100 100 100 100 99 100
100 100 100 100 100 100 100 100 100 100 100 100 100 100 100 100 100 100 100 100 100 100 100 100 100 99 100 100 82 100 100 100
61 17 96 100 100 100 100 100 100 100 100 100 100 100 100 100 98 100 99 72 96 100 100 100 96 91 84 96 100 100 100 100
6 4 42 100 53 76 87 100 100 100 100 100 100 100 100 100 100 100 100 100 100 100 100 99 88 100 98 100 100 100 100 100
18 35 8 46 100 92 96 11 35 38 73 58 98 69 87 29 18 11 87 89 100 100 100 100 100 100 100 99 100 100 100 100
0 99 100 100 25 62 94 97 100 58 34 9 67 95 58 44 98 75 66 80 92 67 100 100 100 99 100 100 100 100 100 100
0 2 38 79 90 90 93 91 100 100 100 88 17 21 97 100 95 14 8 5 99 100 100 100 100 100 100 100 100 100 100 100
0 1 47 19 100 100 100 100 100 100 100 100 99 21 100 100 100 100 100 100 46 74 100 100 100 100 100 100 100 100 100 100
0 0 0 36 26 100 100 58 100 100 100 100 97 100 100 100 100 100 100 100 98 100 100 100 100 100 100 100 100 100 100 100
0 0 0 0 0 0 4 4 5 42 100 100 83 100 100 100 100 100 100 100 94 100 100 100 100 100 100 100 100 100 95 100
0 0 4 0 0 0 0 1 4 62 100 100 97 80 100 100 100 100 100 84 99 100 100 100 100 100 100 100 100 100 100 100
1 0 2 27 0 0 0 0 0 7 18 2 33 52 44 54 100 67 60 62 100 100 100 100 100 100 100 100 100 100 100 100
4 0 0 1 7 0 0 0 0 0 6 96 70 26 49 94 100 100 100 100 100 100 100 100 100 100 100 100 100 100 100 100
100 5 0 0 0 0 0 0 0 0 30 56 49 59 62 93 98 100 100 100 100 100 100 100 100 100 100 100 100 100 100 100
3 0 0 0 0 0 0 0 0 0 1 46 86 82 98 89 24 89 100 100 100 98 87 98 99 100 98 100 100 100 83 92

GFSFLT1_prec_cloud_048.txt.gz
Cloud_Cover
88 97 97 100 100 100 100 100 100 100 100 100 100 100 100 100 100 100 100 100 100 100 73 5 5 96 90 98 100 100 100 100
97 96 82 42 89 100 100 100 100 100 100 100 100 100 100 100 100 100 100 100 100 100 100 34 39 93 99 100 100 100 100 100
78 99 100 100 100 100 100 100 100 100 100 100 100 100 100 100 100 100 100 100 100 100 100 100 100 100 100 90 99 100 100 100
87 26 100 100 100 100 100 100 100 100 100 100 100 100 100 100 100 100 100 100 100 94 94 100 100 100 100 100 100 100 100 100
74 99 84 100 100 100 100 100 100 100 100 100 100 100 100 100 100 100 100 91 72 93 100 100 100 100 100 100 100 100 100 100
26 45 88 45 100 63 100 100 100 100 100 100 100 100 100 100 97 63 94 100 100 100 100 100 100 100 100 100 100 100 100 100
11 13 33 32 89 100 95 100 100 100 100 86 99 100 100 98 77 100 100 100 100 100 100 100 100 100 100 100 100 100 97 98
4 11 41 82 64 100 99 99 99 100 100 100 96 65 100 100 100 100 100 100 100 100 100 100 100 100 100 100 100 99 100 88
1 3 3 6 38 69 100 100 86 88 100 100 100 100 100 100 98 100 100 70 100 100 100 100 100 100 100 98 100 100 100 100
2 0 0 4 5 5 5 78 95 12 5 22 82 100 100 78 95 94 100 100 72 95 91 100 93 100 100 100 100 100 100 100
0 0 0 0 12 76 92 100 100 99 72 100 100 100 100 100 93 90 100 100 100 100 100 100 100 86 100 100 100 100 100 100
0 0 5 0 93 14 41 100 100 100 100 100 100 80 98 100 100 100 100 100 100 100 100 75 61 52 93 100 100 100 100 100
5 1 0 0 46 95 100 100 100 45 100 89 100 100 73 100 100 100 100 100 100 100 100 68 68 80 100 100 100 100 100 100
0 0 0 0 0 5 74 5 10 72 52 100 100 100 100 100 100 100 100 100 100 100 100 100 100 100 100 100 100 100 100 100
12 100 6 0 0 0 2 2 0 2 100 98 100 100 100 100 100 100 100 100 100 100 100 100 100 100 100 100 100 100 100 100
5 5 0 4 0 0 0 0 2 1 3 73 100 100 100 100 100 100 100 100 100 100 100 100 100 100 100 100 100 100 100 100
12 22 1 70 4 5 0 0 0 0 5 70 87 100 100 100 100 100 100 100 100 100 100 100 100 100 100 100 100 100 100 100
62 45 5 0 5 0 0 4 9 1 22 50 100 100 100 100 94 90 100 100 100 100 100 100 100 100 100 100 100 99 100 100
100 61 5 5 5 0 0 35 77 99 100 100 100 100 100 100 100 100 100 100 100 100 100 100 100 100 100 100 100 100 100 100

GFSFLT1_prec_cloud_051.txt.gz
Cloud_Cover
8 21 100 100 100 100 100 100 100 100 100 100 100 100 100 100 100 100 100 100 100 100 100 100 97 100 100 100 96 85 100 100
78 8 78 100 100 100 100 100 100 100 100 100 100 100 100 100 100 100 100 100 100 100 100 100 100 100 100 100 100 100 100 100
70 76 91 100 100 100 100 100 100 100 100 100 100 100 100 100 100 100 100 100 100 100 100 100 100 91 100 100 100 100 100 100
6 53 99 100 90 55 100 100 100 100 100 100 100 100 100 100 100 100 100 100 100 100 100 100 100 100 99 100 99 100 100 100
22 4 43 61 92 70 35 97 100 100 100 100 100 100 100 100 100 100 100 100 100 100 100 100 100 88 100 100 100 100 100 100
5 5 5 7 7 99 94 100 100 100 100 100 100 100 100 100 100 100 100 100 100 100 100 100 100 100 100 100 100 100 100 100
3 1 4 1 2 9 100 100 100 100 100 100 100 100 100 100 100 100 100 100 100 100 26 62 100 100 100 100 100 100 100 100
0 0 0 0 0 5 26 100 100 100 100 100 100 100 100 100 100 100 99 96 62 100 100 100 100 100 100 100 100 100 100 100
0 0 0 5 1 0 1 5 99 87 98 100 100 100 78 96 94 96 100 100 100 100 100 100 100 100 100 100 100 100 100 99
0 1 2 5 2 13 0 0 9 72 72 70 7 40 65 97 99 100 100 100 100 100 100 100 100 100 100 100 100 100 100 100
0 16 3 0 2 60 26 89 15 25 16 12 57 83 81 92 100 90 97 99 100 56 64 100 90 100 100 100 100 100 100 100
0 3 0 1 0 69 22 37 100 100 97 94 70 21 18 88 72 38 93 80 100 100 100 100 84 95 99 91 57 54 100 100
13 0 3 53 0 0 0 56 84 91 100 100 100 100 85 75 100 100 100 100 100 100 100 100 100 100 100 100 100 97 100 100
14 32 70 0 0 0 0 0 1 21 57 84 100 100 100 100 100 100 100 100 100 100 100 100 100 100 100 100 100 100 100 100
24 50 90 0 0 0 5 0 0 1 0 1 94 100 100 100 98 96 100 100 100 100 100 100 100 100 100 100 100 100 100 100
86 5 32 5 1 2 3 0 0 0 0 0 0 56 68 25 97 98 48 100 100 100 100 100 100 100 100 100 100 100 100 100
100 64 41 94 13 3 23 61 75 7 0 0 0 0 1 46 41 81 100 100 100 100 100 100 100 100 100 100 100 100 100 100
99 100 35 100 90 46 5 5 80 3 1 29 44 62 100 100 100 100 100 100 100 100 100 100 100 100 100 100 100 100 100 100
33 73 40 11 100 100 98 44 5 2 1 10 36 84 99 100 100 100 100 100 100 100 100 100 100 100 100 100 100 100 100 100

GFSFLT1_prec_cloud_054.txt.gz
Cloud_Cover
63 0 11 100 100 100 100 100 100 100 100 100 100 100 100 100 100 100 100 100 100 100 100 100 100 100 100 100 100 96 100 100
77 8 0 33 100 100 100 100 100 100 100 100 100 100 100 100 100 100 100 100 100 100 100 100 100 100 100 100 100 100 100 100
84 90 87 23 75 100 100 100 100 100 100 100 100 100 100 100 100 100 100 100 100 100 100 100 100 100 100 100 100 100 100 100
84 100 100 100 100 96 100 100 100 100 100 100 100 100 100 100 100 100 100 100 100 100 100 100 100 100 100 100 100 100 100 100
4 95 100 100 100 100 100 100 100 100 100 100 100 100 100 100 100 100 100 100 100 100 100 100 100 100 100 100 100 100 100 99
0 11 79 100 81 97 100 100 100 100 100 100 100 100 100 100 100 100 100 100 100 100 100 100 100 100 100 100 100 100 100 100
0 0 4 93 56 59 89 100 100 100 100 100 100 100 100 100 100 100 100 100 100 100 100 100 100 100 100 100 76 91 64 100
0 0 0 49 71 60 56 72 100 100 100 100 100 100 100 100 100 100 100 100 100 100 100 99 100 100 88 76 98 94 63 99
1 0 0 0 2 33 13 33 11 85 100 100 100 100 100 100 100 100 100 100 100 100 99 85 100 98 99 100 66 88 98 100
1 5 0 0 0 0 0 19 0 1 5 7 74 97 100 100 100 97 100 100 100 99 24 96 70 96 98 100 92 100 100 100
5 5 4 0 0 0 2 32 6 3 14 38 24 5 5 4 68 89 74 56 9 21 5 76 89 67 100 100 100 98 100 39
5 5 0 0 0 0 19 100 100 27 92 100 100 98 73 27 43 91 5 5 62 94 97 22 64 99 98 100 97 88 98 99
5 4 4 3 0 0 0 1 80 98 100 90 100 100 90 100 98 100 99 70 49 100 98 100 100 100 100 100 100 100 100 100
24 10 89 8 13 5 0 0 0 2 16 98 100 100 100 100 100 100 79 94 88 80 100 100 100 100 100 100 100 100 100 100
100 100 100 100 34 3 0 0 0 0 0 3 5 5 91 100 100 100 94 97 96 100 87 98 100 100 100 100 100 100 100 100
100 100 43 75 96 92 12 4 0 0 0 0 0 0 1 5 96 100 100 100 100 100 100 100 100 100 100 100 100 100 100 100
100 100 100 91 65 94 80 100 71 6 0 0 0 0 0 0 0 37 100 100 100 100 100 100 100 100 100 100 100 100 100 100
100 100 100 100 100 97 100 100 100 100 63 0 0 0 0 0 0 14 75 100 100 100 100 100 100 100 100 100 100 100 100 100
76 100 100 100 100 100 100 100 100 100 100 98 49 1 0 0 44 93 100 100 100 100 100 100 100 100 100 100 100 100 100 100

GFSFLT1_prec_cloud_057.txt.gz
Cloud_Cover
10 70 80 100 100 100 100 100 100 100 100 100 100 100 100 100 100 100 100 100 100 100 72 78 52 100 100 100 100 100 100 100
1 29 60 77 100 100 100 100 100 100 100 100 100 100 100 100 100 100 100 100 100 100 100 100 100 100 100 100 100 100 92 100
6 40 95 73 96 100 100 100 100 100 100 100 100 100 100 100 100 100 98 99 100 100 100 100 100 100 100 100 100 100 100 100
82 96 64 74 97 85 100 100 100 100 100 100 100 100 100 100 100 100 100 100 100 100 100 100 100 100 100 100 100 100 100 100
12 100 94 95 48 44 70 68 96 100 100 100 100 100 100 100 100 100 100 100 100 100 100 100 100 100 100 100 100 100 100 100
1 42 59 12 59 50 60 94 100 100 100 100 100 100 100 100 100 100 100 100 100 100 100 100 100 100 100 100 100 100 100 100
2 4 17 1 37 74 83 60 100 100 100 100 100 100 100 100 100 100 100 100 100 100 100 100 100 100 100 100 100 100 100 100
2 2 16 42 93 93 72 58 65 84 100 100 100 100 100 100 100 100 100 100 100 100 100 100 100 100 100 100 100 100 100 100
5 5 9 5 32 34 48 43 35 41 100 100 100 100 100 100 100 100 100 100 100 100 100 100 100 100 100 100 100 100 100 100
5 5 5 11 0 0 0 0 22 24 11 10 99 100 100 100 100 100 100 100 100 100 100 100 100 100 100 100 97 94 100 71
60 5 5 5 5 0 0 0 0 2 21 4 12 61 94 100 100 100 100 100 100 100 100 100 100 100 100 100 100 78 40 64
98 78 3 5 2 5 0 0 62 7 4 1 3 62 83 12 54 48 91 100 100 100 100 88 86 97 98 31 62 98 99 100
6 90 42 26 5 4 5 0 0 0 3 52 5 5 17 6 10 36 89 86 86 98 73 99 93 90 94 98 100 100 100 100
48 50 100 4 10 15 5 0 0 0 0 1 88 99 51 93 100 100 100 100 99 100 99 100 92 87 100 100 100 100 100 100
100 100 100 5 22 95 5 5 3 1 0 0 0 0 21 42 64 100 100 100 100 100 96 100 100 100 76 100 100 100 100 100
100 100 100 5 14 100 12 5 7 3 4 0 0 0 0 0 1 1 11 64 100 100 100 100 100 100 95 99 100 98 100 100
100 100 100 96 88 14 37 54 5 95 26 15 6 0 5 0 0 0 0 0 0 60 76 100 100 100 81 100 100 100 100 100
100 64 100 100 100 100 99 93 28 15 100 100 100 99 34 17 28 4 4 1 0 0 26 89 100 100 100 100 100 100 100 100
99 100 100 100 100 100 100 100 100 8 100 88 100 100 100 100 100 100 95 53 27 29 50 90 100 100 100 100 100 100 100 100

GFSFLT1_prec_cloud_063.txt.gz
Cloud_Cover
0 0 0 0 72 79 100 100 100 100 100 100 95 100 100 100 100 100 100 100 100 100 100 100 100 100 100 100 100 100 83 100
0 0 0 0 24 100 100 100 100 100 100 100 100 100 100 100 100 100 100 100 100 100 100 100 100 100 100 100 100 95 90 100
0 0 0 0 1 100 85 100 100 100 95 100 100 100 100 100 100 100 100 100 100 100 100 100 100 100 100 100 100 100 100 100
0 0 0 0 0 67 100 100 100 100 100 96 100 100 100 100 100 100 100 100 100 100 100 100 100 100 100 100 100 100 100 100
0 0 0 0 0 11 82 76 100 86 100 67 100 100 96 99 100 100 100 100 100 100 100 100 100 100 100 100 100 100 100 100
3 0 0 0 0 7 12 100 74 99 100 100 93 100 100 100 100 100 100 100 100 100 100 100 100 100 100 100 100 100 100 100
0 0 1 0 0 0 6 88 99 88 100 100 100 100 100 100 100 100 100 100 100 100 100 100 100 100 100 100 100 100 100 100
0 0 1 0 1 0 0 16 100 74 100 100 100 100 100 100 100 100 100 100 100 100 100 100 100 100 100 100 100 100 100 100
0 0 0 1 4 1 0 0 9 100 100 100 100 100 100 100 100 100 100 100 100 100 100 100 100 100 100 100 100 100 100 100
0 0 0 4 1 3 3 5 0 13 100 100 100 100 100 100 100 100 100 100 100 100 100 100 100 100 100 100 100 100 100 100
0 0 0 1 5 2 5 5 5 0 18 100 99 98 100 100 100 94 100 100 100 100 100 100 100 100 100 100 100 100 100 100
4 0 0 0 0 0 5 4 23 5 0 16 95 100 100 91 100 95 18 36 54 100 100 100 100 100 100 100 100 100 100 100
98 25 0 0 0 0 0 9 5 99 5 2 6 23 37 6 95 61 22 5 9 86 100 98 100 100 100 100 100 100 100 100
96 60 3 0 0 0 0 2 0 38 100 81 7 0 1 0 0 0 1 16 2 0 3 4 8 58 5 7 67 100 60 75
59 89 100 5 9 5 33 5 5 27 60 100 78 5 1 0 0 0 0 0 1 0 0 36 32 30 12 13 26 17 8 48
88 80 100 100 89 70 64 21 5 4 75 90 100 10 5 1 3 5 2 0 5 5 43 81 72 90 63 60 31 12 80 84
99 100 100 100 100 58 64 100 62 5 5 4 11 100 46 4 0 5 5 5 4 5 5 5 5 10 14 7 5 5 5 5
100 100 100 100 100 92 72 65 26 26 43 18 5 5 65 97 100 94 100 23 5 25 16 5 5 9 47 21 9 5 25 10
100 100 100 100 100 74 76 89 83 40 68 96 93 76 89 100 100 100 100 100 100 100 96 100 100 97 56 75 75 56 74 40